SWIFT

导读

SWIFT卫星(也叫雨燕卫星、尼尔·盖勒斯·斯威夫特空间天文台)是美国宇航局主导,联合英国、意大利共同研制的多波段天文卫星,于2004年11月20日在美国卡纳维拉尔角发射升空。 它专门用于搜寻观测伽马射线暴,配备爆发警示望远镜、X射线望远镜、紫外/光学望远镜,覆盖多波段探测,能快速定位伽马暴并开展余辉观测,已助力天文学界取得诸多重要发现,超期服役多年仍持续产出科学数据。

Basic Information
目录编号:
28485
目录名称:
SWIFT
国际标识:
2004-047A
轨道中心:
EARTH
卫星名称:
SWIFT
卫星全名:
--
卫星状态:
在轨 (已飞行7906 天)
发射日期:
2004-11-20 UTC
国别 :
美国 (US)
星等 :
--
Orbit Information
数据来源 国际轨道数据 AOE轨道数据
星历时间 2026-07-14T00:30:38+0800
14小时前
查看轨道信息
2026-07-14T01:00:00+0800
13小时前
查看轨道信息
半长轴 6734.047km 6733.929km
偏心率 0.0001911 0.0002235
轨道倾角 20.553° 20.558°
近地点辐角 7.372° 2.704°
升交点赤经 340.079° 339.916°
平近点角 352.675° 113.015°
近地点 354.623km 354.286km
远地点 357.197km 357.298km
周期 91.659分钟 91.656分钟
每日圈数 15.710448 15.710863
Detailed Information
使用方式:
暂无
2D Orbit Map
3D Orbit Map
Orbit Altitude Analysis Chart
Orbit Inclination Analysis Chart
Orbit Comprehensive Analysis Chart
View Comprehensive Chart